Tracking 30107 objects as of 18-Jan-2025
HD Live streaming from Space Station
objects crossing your sky now

DMSP 5D-2 F11 DEB

Track DMSP 5D-2 F11 DEB now!
10-day predictions


NORAD ID: 28312
Int'l Code: 1991-082Z
Perigee: 808.4 km
Apogee: 825.1 km
Inclination: 98.7 °
Period: 101.1 minutes
Semi major axis: 7187 km
RCS: 0.0099 m2 (small)
Launch date: November 28, 1991
Source: United States (US)
Launch site: AIR FORCE WESTERN TEST RANGE (AFWTR)

Note: This is SATELLITE DEBRIS
Your satellite tracking list
Your tracking list is empty




NASA's NSSDC Master Catalog

Two Line Element Set (TLE):
1 28312U 91082Z   25017.83354124  .00001782  00000-0  78427-3 0  9990
2 28312  98.6613  53.8919 0011659 167.1783 192.9695 14.24670433 73815
Source of the keplerian elements: AFSPC